Wind_Speed
28 27 26 27 26 26 25 23 21 20 19 17 17 15 15 15 14 14 14 14 14 14 15 15 15 16 16 16 16 16 16 16 16 16 17 17 17 16 16 16 17 17 16 16
30 29 28 28 27 27 26 26 24 23 21 19 18 18 17 17 16 16 16 16 16 16 17 16 16 17 17 17 17 17 17 17 17 17 18 18 18 17 17 18 18 18 19 19
30 30 29 29 29 28 27 27 26 25 22 21 20 20 19 18 18 17 17 17 17 17 17 17 17 18 18 18 18 17 18 18 18 18 18 18 18 19 19 19 20 20 20 20
30 31 31 30 29 28 28 27 26 25 24 23 22 21 21 20 20 19 19 18 18 18 18 19 19 19 20 21 21 19 19 19 19 19 19 20 20 20 20 21 21 22 22 21
31 31 31 31 30 29 28 28 27 27 26 25 24 24 23 22 22 21 21 20 20 20 19 19 20 21 22 23 24 23 22 20 20 21 21 22 22 22 22 22 23 23 22 22
33 31 31 32 30 29 29 29 28 27 27 26 26 26 26 24 24 23 22 22 22 22 21 21 22 22 23 23 23 23 21 21 22 22 23 23 24 24 24 24 24 23 23 23
33 32 31 31 31 30 30 29 28 27 27 27 27 27 27 26 25 24 24 24 24 24 24 23 23 24 24 24 24 23 23 23 24 25 25 25 25 25 25 25 24 24 24 24
33 32 32 32 31 31 30 29 28 27 27 27 27 28 27 27 27 26 26 26 26 25 25 25 25 25 25 25 25 25 25 24 25 26 27 27 26 26 25 25 24 25 24 24
34 34 33 32 31 30 30 29 28 28 28 28 28 28 29 28 28 28 27 27 27 27 27 26 26 26 26 25 25 26 26 26 26 26 27 26 26 26 25 25 25 25 25 25
35 34 33 32 31 30 31 30 30 29 29 29 29 30 31 31 30 30 29 29 29 28 27 27 27 26 26 26 26 27 27 27 26 26 26 26 27 27 25 25 26 26 26 25
35 34 33 32 32 32 31 31 31 30 30 30 31 31 31 32 32 31 31 31 31 30 29 27 27 25 26 27 27 28 27 27 26 26 26 26 26 26 26 25 26 26 26 25
34 34 34 33 33 32 32 31 30 31 31 30 30 30 31 31 32 32 32 32 31 29 28 28 27 27 27 28 28 28 27 27 27 27 27 27 27 27 26 26 26 26 25 25
33 33 33 33 33 33 32 32 31 31 31 32 32 31 31 32 32 33 32 31 30 29 28 28 28 28 29 29 28 28 28 28 27 27 27 27 27 27 27 26 26 26 26 25
32 33 33 33 33 33 33 33 32 31 32 32 31 31 31 32 32 32 31 30 30 30 29 29 29 29 29 29 28 28 27 26 26 26 27 27 27 27 27 27 27 27 26 26
32 33 33 33 33 32 32 32 32 31 31 31 30 30 31 31 32 31 30 29 30 30 29 29 29 29 30 30 29 29 28 27 26 27 27 27 27 27 27 27 28 27 26 26
31 32 32 33 33 32 32 32 32 31 30 30 30 30 31 30 30 29 29 28 28 28 29 29 29 30 30 30 30 30 30 28 27 27 27 27 28 28 28 28 28 27 27 27
30 31 31 32 32 31 31 31 31 31 30 30 30 30 30 30 30 30 29 29 29 29 29 29 30 31 31 30 31 30 29 28 27 27 27 27 27 28 28 28 28 28 28 28
28 28 28 29 29 29 29 29 29 30 30 29 30 30 30 29 29 29 29 29 29 29 30 30 31 31 30 30 31 30 29 29 28 28 27 28 28 28 28 28 28 29 29 29
26 26 26 26 27 28 28 28 28 28 28 27 28 29 29 29 28 28 29 29 29 29 30 30 30 30 30 30 30 30 29 28 29 29 29 28 28 28 28 28 28 29 29 29
24 24 24 24 25 26 26 25 25 26 26 26 27 27 27 27 28 28 28 29 29 29 29 30 30 29 29 30 30 29 29 29 29 28 28 29 29 29 29 28 29 29 29 30
20 21 22 22 23 24 25 25 26 26 25 25 25 25 25 25 26 27 28 28 28 29 29 30 30 30 30 30 29 29 29 29 28 27 28 29 29 29 29 29 29 29 29 30
17 18 19 19 20 22 23 23 24 24 24 23 23 24 24 25 25 25 26 27 28 28 29 30 30 30 30 28 27 27 27 27 28 29 29 29 29 28 29 29 29 29 29 30
15 15 16 17 18 18 20 21 22 22 22 22 21 22 24 25 25 26 26 27 28 28 30 31 30 30 28 27 27 28 28 28 29 29 29 29 28 28 29 30 30 30 30 30
15 15 17 18 18 19 19 20 21 21 23 23 22 23 24 25 26 26 26 26 27 28 28 27 27 27 28 28 28 29 29 29 29 29 29 28 28 28 29 29 30 29 29 29
16 16 17 18 19 19 19 20 21 21 22 23 23 23 23 24 24 25 26 26 27 27 27 27 27 27 28 28 28 28 28 28 28 28 28 28 29 29 29 29 29 30 30 30
16 17 18 18 19 19 19 20 20 21 21 21 22 22 23 23 23 23 24 24 24 25 26 26 26 26 27 28 28 28 28 28 28 28 28 28 29 29 29 29 30 30 30 29
16 16 17 18 18 18 19 19 21 21 21 21 22 23 23 23 24 24 24 24 23 24 24 24 24 25 26 27 27 28 28 28 28 27 27 28 28 29 29 29 30 30 30 30
Wind_Direction
229 234 238 241 241 242 240 240 244 252 255 256 259 263 266 269 273 278 283 285 285 288 295 300 305 310 313 316 318 320 322 323 324 325 324 322 321 322 322 321 321 319 314 308
233 234 236 238 240 241 241 243 245 250 255 255 255 258 260 264 269 272 276 279 282 286 290 294 299 303 306 308 310 312 315 319 319 319 321 321 320 319 319 318 317 317 315 310
236 236 238 239 240 241 243 243 246 249 252 254 256 258 259 261 264 269 273 276 280 283 286 287 292 295 298 300 301 305 309 313 314 316 318 319 317 317 317 317 316 316 314 312
235 238 239 240 240 239 242 243 246 250 253 255 255 256 256 258 261 265 270 273 275 278 282 285 289 293 296 296 298 301 305 307 310 313 314 316 317 316 315 316 315 314 311 309
235 239 241 241 240 239 242 244 246 249 252 253 253 255 256 258 262 264 267 269 271 275 279 283 287 291 294 296 300 301 301 302 306 308 311 312 313 314 314 313 313 312 310 307
235 236 239 242 242 241 243 247 247 249 251 253 254 253 255 258 261 262 264 268 271 274 278 283 286 290 293 295 298 300 301 302 303 305 307 309 311 311 310 311 310 310 309 308
236 238 240 243 244 244 245 248 248 249 250 250 251 252 254 256 258 260 262 267 270 273 276 280 283 288 291 293 295 298 300 303 304 305 307 307 308 309 308 308 307 307 308 309
236 239 242 243 244 244 246 248 249 248 249 249 250 253 254 256 258 259 261 265 267 271 275 278 281 285 288 290 292 295 300 301 303 303 305 306 306 307 305 305 304 306 306 306
237 239 243 246 247 246 247 248 249 248 248 249 250 252 253 255 256 257 261 265 268 270 273 276 279 282 284 287 290 292 295 297 300 301 303 304 305 305 304 304 303 305 305 304
240 240 243 246 247 248 248 249 249 249 249 249 250 252 253 255 256 257 260 264 267 267 270 273 276 278 282 285 288 290 292 294 298 299 302 303 305 306 303 303 302 304 305 304
242 243 243 245 247 249 250 251 251 251 251 252 252 252 253 254 255 255 257 260 263 265 267 270 273 276 281 284 288 289 290 292 295 297 299 301 303 305 304 303 304 304 304 304
243 243 244 245 246 249 251 251 252 252 252 253 252 252 252 253 255 257 259 261 264 267 268 269 271 273 278 282 286 287 288 290 292 295 296 298 301 302 302 303 304 305 304 303
243 244 245 245 247 249 250 251 253 254 254 254 253 251 252 253 255 259 261 262 264 265 265 267 269 273 278 281 284 285 287 288 289 291 294 295 298 301 301 301 302 304 303 301
244 244 244 245 247 248 250 251 253 254 254 254 254 252 252 253 256 258 259 259 260 263 264 265 268 272 276 279 280 282 284 285 287 289 292 294 297 299 301 301 302 303 302 301
244 244 245 245 246 247 249 251 253 254 253 251 251 250 250 251 254 256 257 259 260 261 262 265 269 272 275 276 276 278 279 283 285 287 290 292 294 296 299 300 302 302 302 302
245 246 246 246 246 247 248 249 250 251 250 250 249 249 250 251 252 254 256 258 258 258 262 266 270 273 276 277 276 278 278 280 283 285 288 289 291 294 296 298 301 301 301 301
246 246 246 246 246 247 246 245 246 247 249 250 250 250 250 252 252 254 255 257 259 260 263 267 270 273 275 276 277 279 279 280 282 284 286 288 290 293 295 297 298 299 300 300
249 247 245 244 244 243 241 242 244 247 250 252 251 249 252 253 252 252 254 256 259 261 263 266 270 272 274 276 278 281 282 282 281 282 284 287 289 293 295 296 297 299 299 299
249 247 244 243 240 239 241 243 246 248 249 249 249 250 252 252 252 253 255 258 260 262 265 268 270 273 274 277 279 280 280 280 281 282 283 287 289 292 294 296 297 299 300 299
246 246 246 242 239 238 240 243 245 247 249 250 250 251 252 253 253 253 254 258 261 264 267 269 272 275 277 277 279 279 278 279 282 283 284 286 288 291 294 296 297 298 298 298
239 240 242 241 238 238 241 244 246 247 249 250 251 251 253 255 256 257 256 259 262 264 267 269 271 273 276 277 277 277 278 278 280 282 285 286 288 291 293 295 297 298 298 298
236 236 235 236 238 241 244 246 246 246 246 247 250 252 254 257 260 262 261 262 264 267 268 269 272 274 275 275 276 278 280 282 283 284 287 287 289 290 292 294 296 298 298 299
240 241 241 240 241 241 241 243 244 245 246 248 252 255 257 259 262 264 264 265 266 268 269 270 270 271 271 273 276 279 281 283 284 286 287 288 289 290 292 294 295 297 298 298
241 241 240 240 243 244 243 244 247 251 251 252 257 260 261 262 264 265 267 267 266 267 269 269 270 271 272 275 277 279 281 282 284 286 288 289 290 291 293 295 297 297 297 298
240 242 241 240 241 243 245 248 251 253 255 256 258 261 262 263 265 267 267 267 266 267 268 269 270 271 273 276 278 280 281 282 284 286 287 287 290 292 293 295 295 295 296 298
236 239 241 241 240 243 247 250 252 253 257 259 259 260 262 263 266 268 269 270 270 269 269 270 271 273 274 276 278 280 282 282 283 285 287 289 290 291 292 293 293 295 296 297
238 240 242 243 244 246 249 251 254 257 259 261 264 266 266 267 268 270 272 273 273 272 271 271 272 273 275 277 279 280 281 284 287 287 287 288 289 290 292 293 294 296 297 297
Height
5884 5887 5889 5892 5894 5897 5899 5902 5905 5907 5907 5909 5908 5909 5909 5909 5909 5909 5908 5908 5907 5905 5904 5903 5901 5899 5898 5895 5893 5891 5888 5886 5883 5881 5878 5875 5873 5870 5867 5865 5862 5860 5857 5855
5877 5880 5882 5885 5888 5890 5893 5896 5898 5900 5902 5903 5903 5904 5904 5904 5905 5905 5904 5904 5903 5902 5900 5899 5898 5896 5894 5892 5890 5888 5885 5883 5880 5878 5875 5872 5869 5867 5864 5861 5859 5856 5853 5851
5870 5873 5876 5879 5882 5884 5887 5889 5892 5894 5897 5897 5898 5899 5899 5899 5900 5900 5900 5899 5898 5897 5896 5895 5893 5892 5890 5888 5886 5884 5882 5879 5877 5874 5871 5869 5866 5863 5860 5858 5855 5852 5849 5846
5864 5867 5869 5874 5875 5878 5880 5882 5885 5887 5889 5890 5892 5893 5893 5894 5894 5895 5895 5894 5894 5893 5891 5890 5889 5887 5885 5883 5881 5879 5877 5875 5873 5870 5868 5865 5862 5859 5856 5853 5850 5847 5844 5841
5857 5859 5862 5865 5867 5871 5873 5875 5878 5880 5882 5883 5885 5886 5887 5888 5888 5889 5889 5889 5888 5887 5886 5885 5884 5882 5880 5877 5875 5874 5872 5870 5868 5865 5863 5860 5857 5854 5851 5848 5845 5841 5838 5836
5848 5852 5855 5858 5861 5863 5867 5868 5871 5872 5874 5876 5878 5879 5881 5881 5881 5882 5882 5883 5882 5881 5880 5879 5878 5876 5874 5871 5869 5869 5867 5865 5863 5860 5858 5855 5852 5849 5846 5842 5839 5836 5833 5830
5840 5843 5847 5850 5853 5856 5860 5862 5863 5865 5866 5868 5870 5872 5873 5874 5875 5875 5876 5876 5875 5875 5874 5873 5872 5870 5869 5866 5865 5864 5862 5860 5857 5855 5852 5849 5846 5843 5840 5836 5833 5831 5828 5825
5832 5836 5841 5841 5844 5848 5851 5853 5855 5857 5859 5861 5862 5864 5865 5866 5867 5868 5868 5868 5868 5868 5868 5867 5866 5864 5863 5861 5860 5858 5856 5854 5852 5849 5846 5843 5840 5836 5833 5830 5827 5825 5822 5819
5825 5830 5831 5833 5836 5839 5842 5845 5847 5849 5851 5853 5854 5856 5857 5859 5860 5860 5861 5861 5861 5860 5860 5860 5859 5858 5857 5855 5853 5852 5850 5848 5845 5843 5840 5837 5834 5830 5827 5824 5821 5818 5816 5813
5816 5819 5822 5825 5827 5830 5833 5836 5838 5840 5842 5844 5846 5848 5849 5850 5851 5852 5853 5853 5853 5853 5852 5852 5851 5851 5850 5849 5847 5845 5843 5841 5838 5836 5834 5831 5828 5824 5821 5818 5815 5813 5809 5807
5806 5811 5813 5816 5819 5822 5824 5827 5829 5831 5833 5835 5837 5839 5840 5842 5843 5844 5844 5845 5845 5844 5844 5844 5843 5843 5842 5841 5839 5838 5836 5833 5832 5830 5828 5825 5822 5819 5815 5812 5809 5806 5803 5800
5797 5801 5804 5807 5810 5812 5815 5817 5820 5822 5824 5826 5828 5830 5831 5833 5834 5835 5836 5836 5836 5836 5836 5836 5836 5835 5835 5833 5832 5830 5828 5826 5824 5823 5820 5818 5815 5812 5809 5806 5803 5800 5797 5794
5788 5791 5794 5797 5800 5803 5805 5808 5810 5813 5815 5817 5818 5820 5822 5823 5825 5826 5827 5827 5828 5828 5828 5828 5828 5828 5827 5825 5824 5822 5820 5818 5817 5815 5813 5810 5808 5805 5802 5799 5796 5793 5790 5787
5778 5781 5783 5787 5790 5792 5795 5798 5800 5802 5805 5807 5808 5810 5812 5814 5816 5817 5817 5818 5819 5819 5820 5820 5820 5819 5818 5817 5816 5814 5812 5810 5809 5807 5805 5803 5801 5798 5795 5792 5789 5786 5783 5780
5768 5771 5774 5776 5779 5782 5785 5787 5790 5793 5795 5797 5799 5801 5803 5805 5806 5807 5808 5809 5810 5810 5811 5811 5811 5811 5810 5809 5807 5806 5804 5803 5801 5799 5798 5796 5793 5791 5788 5785 5782 5779 5776 5773
5759 5761 5763 5766 5769 5772 5775 5778 5781 5783 5785 5787 5790 5791 5793 5795 5797 5798 5799 5800 5801 5801 5802 5803 5802 5802 5801 5800 5799 5797 5796 5795 5793 5791 5790 5788 5786 5783 5781 5778 5775 5772 5769 5766
5750 5752 5754 5756 5759 5762 5765 5768 5771 5774 5776 5778 5780 5782 5784 5786 5788 5789 5790 5791 5792 5793 5794 5794 5794 5793 5793 5791 5790 5789 5787 5786 5785 5783 5782 5780 5778 5776 5773 5770 5767 5764 5761 5758
5741 5743 5745 5747 5750 5753 5756 5759 5762 5764 5767 5769 5771 5773 5775 5777 5778 5780 5781 5783 5784 5784 5785 5785 5785 5784 5784 5783 5781 5780 5779 5778 5776 5775 5774 5772 5770 5768 5765 5763 5760 5757 5754 5750
5733 5735 5737 5739 5742 5745 5749 5752 5754 5756 5758 5761 5763 5765 5767 5769 5770 5771 5773 5774 5775 5776 5776 5776 5776 5775 5774 5774 5773 5772 5771 5769 5768 5767 5766 5764 5762 5760 5757 5754 5752 5749 5746 5742
5725 5727 5729 5731 5734 5738 5742 5745 5747 5749 5752 5754 5756 5758 5759 5761 5762 5764 5765 5766 5767 5767 5767 5767 5766 5766 5766 5765 5764 5763 5762 5761 5760 5758 5757 5756 5754 5751 5749 5746 5744 5741 5737 5734
5719 5720 5722 5725 5728 5732 5735 5738 5741 5743 5746 5747 5749 5751 5753 5754 5756 5756 5757 5758 5759 5759 5759 5758 5758 5758 5757 5756 5755 5755 5754 5752 5751 5750 5749 5747 5745 5742 5740 5738 5735 5732 5729 5726
5714 5716 5718 5720 5723 5727 5730 5733 5735 5738 5740 5742 5743 5745 5746 5748 5749 5749 5749 5750 5750 5750 5750 5750 5750 5749 5749 5748 5747 5746 5745 5744 5743 5742 5740 5738 5736 5734 5732 5729 5727 5724 5721 5717
5712 5714 5716 5718 5721 5723 5726 5728 5731 5732 5734 5736 5737 5738 5739 5741 5741 5742 5742 5742 5742 5742 5741 5741 5741 5741 5740 5740 5739 5738 5737 5736 5735 5733 5731 5729 5728 5725 5723 5721 5718 5715 5712 5709
5710 5711 5713 5716 5718 5720 5721 5723 5725 5727 5728 5729 5731 5732 5732 5733 5734 5734 5734 5733 5733 5733 5733 5733 5732 5732 5732 5731 5731 5730 5729 5727 5726 5725 5723 5721 5719 5717 5714 5712 5709 5706 5703 5700
5707 5709 5711 5712 5714 5716 5717 5719 5720 5721 5722 5723 5724 5724 5725 5726 5726 5726 5726 5726 5726 5725 5725 5725 5725 5724 5724 5723 5722 5721 5720 5719 5718 5716 5714 5712 5710 5708 5706 5703 5700 5698 5695 5692
5704 5706 5707 5709 5710 5711 5712 5713 5714 5716 5716 5717 5717 5718 5718 5718 5718 5718 5718 5718 5718 5717 5717 5717 5717 5716 5716 5715 5714 5713 5711 5710 5709 5707 5705 5703 5701 5699 5697 5694 5691 5689 5686 5683
5700 5702 5703 5704 5706 5707 5707 5708 5709 5710 5711 5711 5711 5711 5711 5711 5711 5711 5711 5710 5710 5710 5709 5709 5709 5708 5707 5707 5706 5704 5703 5701 5700 5698 5696 5694 5692 5690 5688 5685 5682 5680 5677 5674